CW0230 Weather Reports


Display with metric or nautical units.
time (UTC)temp
F
wind
direction
speed
MPH
gust
MPH
rain 1hr
in
rain 24hr
in
rain mn
in
humidity
%
barometer
mb
20260902185517 67 212 3.0 12.0 0.00 0.05 0.05 92 1017.2
20260902185017 67 198 3.0 12.0 0.00 0.05 0.05 92 1017.2
20260902183517 67 199 3.0 8.0 0.00 0.05 0.05 92 1017.0
20260902182517 67 224 5.0 10.0 0.00 0.05 0.05 92 1016.9
20260902182017 67 198 4.0 9.0 0.00 0.05 0.05 92 1017.0
20260902181517 67 194 4.0 12.0 0.00 0.06 0.05 92 1016.9
20260902181017 67 171 3.0 12.0 0.00 0.06 0.05 92 1016.8
20260902180018 67 186 4.0 12.0 0.00 0.10 0.05 92 1016.9
20260902175018 67 200 6.0 12.0 0.00 0.10 0.05 91 1016.9
20260902173017 67 192 7.0 12.0 0.00 0.10 0.05 92 1016.9
20260902172017 67 203 5.0 12.0 0.00 0.10 0.05 92 1016.8
20260902171517 67 205 6.0 13.0 0.00 0.10 0.05 92 1016.8
20260902171017 67 200 6.0 14.0 0.00 0.10 0.05 92 1016.8
20260902170517 67 197 6.0 14.0 0.00 0.10 0.05 92 1016.8
20260902165019 67 197 5.0 16.0 0.00 0.10 0.05 92 1016.9
20260902164017 67 182 6.0 12.0 0.00 0.10 0.05 92 1016.9
20260902163017 67 189 6.0 20.0 0.00 0.10 0.05 92 1016.8
20260902161018 67 193 6.0 15.0 0.00 0.10 0.05 93 1016.8
20260902155017 67 203 8.0 20.0 0.00 0.10 0.05 93 1016.8
20260902154017 67 188 7.0 15.0 0.00 0.10 0.05 93 1016.8
20260902153018 66 188 8.0 21.0 0.00 0.10 0.05 94 1017.0
20260902152517 66 196 9.0 20.0 0.00 0.10 0.05 94 1017.2
20260902151517 66 202 7.0 15.0 0.00 0.10 0.05 94 1017.3
20260902145017 66 203 8.0 18.0 0.00 0.10 0.05 94 1017.2
20260902144518 66 207 8.0 18.0 0.00 0.10 0.05 94 1017.2
20260902144017 66 191 7.0 16.0 0.00 0.10 0.05 94 1017.3
20260902142517 66 194 7.0 18.0 0.00 0.10 0.05 94 1017.5
20260902141017 66 199 10.0 20.0 0.00 0.10 0.05 94 1017.5
20260902140017 66 182 9.0 20.0 0.00 0.10 0.05 94 1017.4
20260902135517 66 181 10.0 20.0 0.00 0.10 0.05 94 1017.5
20260902135018 66 188 10.0 16.0 0.00 0.10 0.05 94 1017.5
20260902133018 66 210 8.0 14.0 0.00 0.10 0.05 93 1017.8
20260902132517 66 204 7.0 20.0 0.00 0.10 0.05 93 1017.6
20260902131517 66 181 10.0 20.0 0.01 0.10 0.05 93 1017.7
20260902131018 65 203 9.0 18.0 0.02 0.10 0.05 93 1017.7
20260902130018 66 195 7.0 18.0 0.02 0.10 0.05 93 1017.7
20260902125517 66 170 10.0 18.0 0.02 0.10 0.05 93 1017.6
20260902124017 66 182 9.0 20.0 0.03 0.10 0.05 93 1017.7
20260902123517 66 190 10.0 20.0 0.03 0.10 0.05 93 1017.9
20260902123018 66 189 7.0 18.0 0.03 0.10 0.05 94 1017.8
20260902122017 65 190 8.0 18.0 0.03 0.10 0.05 93 1017.9
20260902120517 65 188 8.0 18.0 0.02 0.09 0.03 92 1018.0
20260902120018 66 193 9.0 18.0 0.01 0.08 0.02 91 1018.1
20260902115518 66 185 10.0 18.0 0.01 0.08 0.02 91 1018.2
20260902115017 66 207 10.0 18.0 0.00 0.07 0.02 91 1018.3
20260902114017 66 185 9.0 20.0 0.00 0.07 0.02 89 1018.4
20260902113018 66 195 10.0 21.0 0.00 0.07 0.02 87 1018.4
20260902111517 67 204 11.0 20.0 0.00 0.07 0.02 85 1018.4
20260902111017 67 183 11.0 20.0 0.00 0.07 0.02 85 1018.5
20260902110518 67 206 10.0 17.0 0.00 0.07 0.02 84 1018.6
20260902105517 67 196 10.0 18.0 0.00 0.07 0.02 84 1018.6
20260902104518 67 191 10.0 25.0 0.00 0.07 0.02 85 1018.6
20260902103517 67 205 9.0 17.0 0.00 0.07 0.02 85 1018.4
20260902102517 67 187 7.0 16.0 0.00 0.07 0.02 87 1018.4
20260902102017 66 182 10.0 18.0 0.00 0.07 0.02 86 1018.4
20260902101518 66 180 10.0 21.0 0.00 0.07 0.02 87 1018.3
20260902101019 66 204 13.0 21.0 0.00 0.07 0.02 87 1018.3
20260902095517 65 186 7.0 15.0 0.00 0.07 0.02 90 1018.6
20260902095017 65 193 8.0 15.0 0.00 0.07 0.02 90 1018.7
20260902092517 64 194 8.0 15.0 0.00 0.07 0.02 92 1018.9
20260902091517 63 180 7.0 14.0 0.00 0.07 0.02 92 1018.8
20260902091017 63 200 6.0 13.0 0.01 0.07 0.02 93 1018.8
20260902090518 63 196 6.0 13.0 0.02 0.07 0.02 93 1018.9
20260902090018 63 186 6.0 12.0 0.02 0.07 0.02 93 1018.9
20260902085517 63 191 5.0 12.0 0.02 0.07 0.02 92 1018.9
20260902085018 63 194 5.0 12.0 0.02 0.07 0.02 92 1018.8
20260902084017 63 185 4.0 7.0 0.02 0.07 0.02 93 1018.9
20260902083018 63 191 5.0 10.0 0.02 0.07 0.02 92 1018.9
20260902082517 63 193 5.0 10.0 0.02 0.07 0.02 92 1018.9
20260902082018 63 186 6.0 12.0 0.02 0.07 0.02 92 1018.9
20260902081517 64 209 6.0 13.0 0.02 0.07 0.02 91 1019.0
20260902081017 64 205 6.0 13.0 0.01 0.06 0.01 91 1018.9
20260902080517 64 191 3.0 8.0 0.00 0.06 0.00 91 1019.0
20260902080018 64 150 5.0 8.0 0.00 0.06 0.00 91 1019.0
20260902075017 64 196 5.0 12.0 0.00 0.06 0.00 91 1018.9
20260902073517 63 189 4.0 10.0 0.00 0.06 0.00 92 1018.8
20260902071517 63 198 3.0 9.0 0.00 0.06 0.00 93 1018.9
20260902070517 63 194 3.0 9.0 0.00 0.06 0.00 93 1018.8
20260902070018 63 180 3.0 9.0 0.00 0.06 0.00 93 1018.8
20260902065017 62 178 3.0 9.0 0.00 0.06 0.00 93 1018.8
20260902064518 62 197 4.0 9.0 0.00 0.06 0.00 93 1018.7
20260902064017 62 192 5.0 9.0 0.00 0.06 0.00 93 1018.7
20260902063017 62 188 3.0 7.0 0.00 0.06 0.00 93 1018.6
20260902061517 62 212 3.0 10.0 0.00 0.06 0.00 93 1018.7
20260902060517 61 205 3.0 8.0 0.00 0.06 0.00 94 1018.9
20260902055518 61 207 2.0 5.0 0.00 0.06 0.00 95 1019.0
20260902055017 61 158 2.0 5.0 0.00 0.06 0.00 95 1018.9
20260902054017 61 159 1.0 6.0 0.00 0.06 0.00 94 1018.8
20260902053517 61 161 2.0 6.0 0.00 0.06 0.00 94 1018.8
20260902052518 60 157 0.0 0.0 0.00 0.06 0.00 94 1018.9
20260902052017 60 157 0.0 0.0 0.00 0.06 0.00 94 1018.8
20260902050017 60 154 0.0 0.0 0.00 0.06 0.00 94 1018.9
20260902045017 60 202 0.0 0.0 0.00 0.06 0.00 94 1018.9
20260902042517 60 218 0.0 0.0 0.00 0.06 0.00 94 1019.0
20260902042017 60 218 0.0 0.0 0.00 0.06 0.00 94 1019.0
20260902041517 60 218 0.0 0.0 0.00 0.06 0.00 94 1019.1
20260902041018 60 218 0.0 0.0 0.00 0.06 0.00 93 1019.1
20260902040017 60 218 0.0 0.0 0.00 0.06 0.00 93 1019.3
20260902034017 60 218 0.0 0.0 0.00 0.06 0.00 93 1019.2
20260902032518 60 218 0.0 0.0 0.00 0.06 0.00 93 1019.5
20260902032017 60 218 0.0 0.0 0.00 0.06 0.00 93 1019.5
20260902031017 60 218 0.0 0.0 0.00 0.06 0.00 93 1019.6
20260902030517 60 218 0.0 0.0 0.00 0.06 0.00 93 1019.6
20260902030017 60 218 0.0 0.0 0.00 0.06 0.00 93 1019.5
20260902024517 60 218 0.0 0.0 0.00 0.06 0.00 93 1019.8
20260902024017 60 218 0.0 0.0 0.00 0.06 0.00 93 1019.8
20260902023517 60 218 0.0 0.0 0.00 0.06 0.00 93 1019.8
20260902022017 60 218 0.0 0.0 0.00 0.06 0.00 93 1019.7
20260902021517 60 218 0.0 0.0 0.00 0.06 0.00 93 1019.6
20260902015517 60 214 0.0 0.0 0.00 0.06 0.00 93 1020.2
20260902015017 60 215 0.0 0.0 0.00 0.06 0.00 93 1020.2
20260902014517 60 223 0.0 0.0 0.00 0.06 0.00 92 1020.3
20260902013017 60 225 0.0 0.0 0.00 0.06 0.00 92 1020.3
20260902011518 60 221 0.0 0.0 0.00 0.06 0.00 92 1020.2
20260902010517 60 221 0.0 0.0 0.00 0.06 0.00 92 1020.1
20260902005517 60 221 0.0 0.0 0.00 0.06 0.00 92 1020.3
20260902004517 60 221 0.0 0.0 0.00 0.06 0.00 92 1020.4
20260902004017 60 221 0.0 0.0 0.00 0.06 0.00 92 1020.4
20260902002517 61 221 0.0 0.0 0.00 0.06 0.00 92 1020.7
20260902000517 60 221 0.0 0.0 0.00 0.06 0.00 91 1020.6
20260901235017 60 209 0.0 0.0 0.00 0.06 0.00 91 1020.7
20260901233518 61 209 0.0 0.0 0.00 0.06 0.00 90 1020.8
20260901232017 61 209 0.0 1.0 0.00 0.06 0.00 90 1020.8
20260901231517 61 209 0.0 1.0 0.00 0.06 0.00 90 1020.7
20260901231017 61 209 0.0 1.0 0.00 0.06 0.00 90 1020.7
20260901230518 61 209 0.0 1.0 0.00 0.06 0.00 90 1020.7
20260901230018 61 209 0.0 1.0 0.00 0.06 0.00 90 1020.7
20260901223517 61 209 0.0 2.0 0.00 0.06 0.06 89 1020.6
20260901223017 61 209 1.0 2.0 0.00 0.06 0.06 89 1020.6
20260901222517 61 206 1.0 2.0 0.00 0.06 0.06 89 1020.6
20260901222017 61 199 1.0 2.0 0.00 0.06 0.06 89 1020.5
20260901221517 61 199 1.0 2.0 0.00 0.06 0.06 89 1020.6
20260901221017 61 211 1.0 2.0 0.00 0.06 0.06 89 1020.7
20260901215017 61 221 1.0 3.0 0.00 0.06 0.06 89 1020.8
20260901214517 61 226 1.0 3.0 0.00 0.06 0.06 89 1020.8
20260901213018 61 207 0.0 2.0 0.00 0.06 0.06 90 1020.7
20260901212517 62 207 1.0 2.0 0.00 0.06 0.06 90 1020.8
20260901211017 62 201 1.0 3.0 0.00 0.06 0.06 90 1020.9
20260901210517 62 198 1.0 3.0 0.00 0.06 0.06 90 1020.9
20260901210017 62 216 1.0 2.0 0.00 0.06 0.06 90 1021.0
20260901205517 62 216 1.0 2.0 0.00 0.06 0.06 90 1020.9
20260901203017 62 236 1.0 3.0 0.00 0.06 0.06 91 1020.8
20260901202517 62 286 1.0 2.0 0.00 0.06 0.06 91 1020.7
20260901201517 62 286 0.0 1.0 0.00 0.06 0.06 92 1020.8
20260901200517 62 286 0.0 0.0 0.00 0.06 0.06 91 1020.8
20260901200018 62 286 0.0 0.0 0.00 0.06 0.06 91 1020.8
20260901195517 62 286 0.0 0.0 0.00 0.06 0.06 91 1020.8
20260901194517 62 286 0.0 1.0 0.00 0.06 0.06 90 1020.8
20260901194017 62 286 0.0 1.0 0.00 0.06 0.06 90 1020.8
20260901193517 62 286 0.0 0.0 0.00 0.06 0.06 90 1020.8
20260901192517 62 286 0.0 0.0 0.00 0.06 0.06 90 1020.7
20260901192017 63 286 0.0 0.0 0.00 0.06 0.06 89 1020.6